User: anonymous   Login
Location: Unspecified
(0.0000°N, 0.0000°E)
Time: 16:35:53
(UTC+00:00)
Language:

METEOR-M - Orbit

View from above orbital plane
View from above orbital plane
View from above satellite
View from above satellite

Ground track
Ground track

The orbit data is extracted from the following two-line orbital elements,

1 35865U 09049A   18170.01978439  .00000006  00000-0  21460-4 0  9990
2 35865  98.4056 179.9945 0003078 136.2303 223.9120 14.22153683454244
Epoch (UTC): 19 June 2018 00:28:29
Eccentricity: 0.0003078
inclination: 98.4056°
perigee height: 816 km
apogee height: 820 km
right ascension of ascending node: 179.9945°
argument of perigee: 136.2303°
revolutions per day: 14.22153683
mean anomaly at epoch: 223.9120°
orbit number at epoch: 45424

The dashed part of the orbit path shows where the satellite is in the earth's shadow,  

DLR